User: anonymous   Login
Location: Unspecified
(0.0000°N, 0.0000°E)
Time: 21:05:47
(UTC+00:00)
Language:

STARLINK-11223 [DTC] - Orbit

View from above orbital plane
View from above orbital plane
View from above satellite
View from above satellite

Ground track
Ground track

The orbit is defined by the following mean orbital elements,

1 60307U          26145.32911270 +.00000000 +00000-0 +12225-4 0 00008
2 60307  53.1587 128.2365 0001112  72.2646 287.8493 15.69705335    01
Epoch (UTC): 25 May 2026 07:53:55
Eccentricity: 0.0001112
inclination: 53.1587°
perigee height: 359 km
apogee height: 360 km
right ascension of ascending node: 128.2365°
argument of perigee: 72.2646°
revolutions per day: 15.69705335
mean anomaly at epoch: 287.8493°

The dashed part of the orbit path shows where the satellite is in the earth's shadow,  

DLR